Linton-On-Ouse, United Kingdom

4:10 AM GMT on January 18, 2017 (GMT +0000)
Linton-On-Ouse

Weather History for EGXU - November, 2012

Change the Weather History Date:

Friday, November 23, 2012

  Actual Average Record
Temperature  
Mean Temperature 44 °F -  
Max Temperature 50 °F 42 °F - ()
Min Temperature 39 °F 34 °F - ()
Degree Days  
Heating Degree Days 20    
Moisture  
Dew Point 38 °F    
Average Humidity 77    
Maximum Humidity 93    
Minimum Humidity 56    
Precipitation  
Precipitation 0.00 in - - ()
Sea Level Pressure  
Sea Level Pressure 29.75 in    
Wind  
Wind Speed 8 mph ()    
Max Wind Speed 15 mph    
Max Gust Speed -    
Visibility 7.4 miles    
Events Rain    
T = Trace of Precipitation, MM = Missing Value Source: Averaged Metar Reports

Daily Weather History Graph

Daily Weather History Graph

Search for Another Location

Airport or City:

Trip Planner

Search our weather history database for the weather conditions in past years. The results will help you decide how hot, cold, wet, or windy it might be!

Date:

Astronomy

Nov. 23, 2012 Rise Set
Actual Time 7:48 AM GMT 3:54 PM GMT
Civil Twilight 7:07 AM GMT 4:35 PM GMT
Nautical Twilight 6:22 AM GMT 5:19 PM GMT
Astronomical Twilight 5:40 AM GMT 6:02 PM GMT
Moon 1:36 PM GMT (11/23) 2:13 AM GMT (11/23)
Length of Visible Light 9h 28m
Length of Day
8h 06m
Waxing Gibbous, 78% of the Moon is Illuminated
Nov 23
Waxing Gibbous
Nov 28
Full
Dec 6
Last Quarter
Dec 13
New
Dec 20
First Quarter

Hourly Weather History & Observations

Time (GMT) Temp. Windchill Dew Point Humidity Pressure Visibility Wind Dir Wind Speed Gust Speed Precip Events Conditions
12:50 AM 44.6 °F 39.7 °F 41.0 °F 87% 29.53 in 6.2 mi SSE 9.2 mph - N/A   Mostly Cloudy
1:50 AM 44.6 °F 39.7 °F 39.2 °F 81% 29.53 in 6.2 mi South 9.2 mph - N/A   Scattered Clouds
2:50 AM 45 °F - 38 °F 70% 29.56 in 40 mi SW 12.7 mph - -   Scattered Clouds
2:50 AM 44.6 °F 38.4 °F 39.2 °F 81% 29.53 in 6.2 mi SW 12.7 mph - N/A   Partly Cloudy
3:50 AM 44.6 °F 39.2 °F 39.2 °F 81% 29.56 in 6.2 mi SW 10.4 mph - N/A   Partly Cloudy
4:50 AM 42.8 °F 40.1 °F 39.2 °F 87% 29.59 in 6.2 mi WSW 4.6 mph - N/A   Scattered Clouds
5:50 AM 43 °F - 38 °F 78% 29.63 in 19 mi SW 5.8 mph - -   Scattered Clouds
5:54 AM 42.8 °F 39.3 °F 39.2 °F 87% 29.62 in 6.2 mi SW 5.8 mph - N/A Rain Light Rain Showers
7:50 AM 42.8 °F 37.0 °F 37.4 °F 81% 29.68 in - SW 10.4 mph - N/A   Clear
8:50 AM 43 °F - 38 °F 77% 29.72 in 28 mi SW 10.4 mph - -   Partly Cloudy
8:50 AM 42.8 °F 37.0 °F 39.2 °F 87% 29.71 in 6.2 mi SW 10.4 mph - N/A   Partly Cloudy
9:50 AM 44.6 °F 41.4 °F 39.2 °F 81% 29.74 in 6.2 mi ESE 5.8 mph - N/A   Partly Cloudy
10:50 AM 48.2 °F - 39.2 °F 71% 29.77 in 6.2 mi South 6.9 mph - N/A   Partly Cloudy
11:50 AM 49 °F - 39 °F 58% 29.78 in 17 mi SW 11.5 mph - -   Partly Cloudy
11:50 AM 48.2 °F - 39.2 °F 71% 29.77 in 6.2 mi SW 11.5 mph - N/A   Scattered Clouds
12:50 PM 50.0 °F - 37.4 °F 62% 29.77 in 6.2 mi SW 12.7 mph - N/A   Partly Cloudy
1:50 PM 50.0 °F - 37.4 °F 62% 29.77 in 6.2 mi SW 15.0 mph - N/A   Partly Cloudy
2:50 PM 48 °F - 37 °F 56% 29.80 in 25 mi SW 10.4 mph - -   Scattered Clouds
2:50 PM 48.2 °F - 37.4 °F 66% 29.80 in 6.2 mi SW 10.4 mph - N/A   Partly Cloudy
3:50 PM 48.2 °F - 37.4 °F 66% 29.80 in 6.2 mi SSW 10.4 mph - N/A   Partly Cloudy
4:50 PM 44.6 °F 40.2 °F 37.4 °F 76% 29.83 in 6.2 mi South 8.1 mph - N/A   Partly Cloudy
5:50 PM 42.8 °F 38.0 °F 37.4 °F 81% 29.83 in 6.2 mi South 8.1 mph - N/A   Unknown
6:50 PM 42.8 °F 36.6 °F 37.4 °F 81% 29.83 in 6.2 mi South 11.5 mph - N/A   Unknown
7:50 PM 42.8 °F 36.2 °F 37.4 °F 81% 29.86 in 6.2 mi South 12.7 mph - N/A   Unknown
8:50 PM 42 °F - 36 °F 74% 29.89 in 22 mi SSW 9.2 mph - -  
8:50 PM 41.0 °F 35.2 °F 37.4 °F 87% 29.89 in 6.2 mi SSW 9.2 mph - N/A   Unknown
9:50 PM 41.0 °F 39.0 °F 37.4 °F 87% 29.92 in 6.2 mi WNW 3.5 mph - N/A   Partly Cloudy
10:50 PM 39.2 °F - 37.4 °F 93% 29.92 in 6.2 mi SE 2.3 mph - N/A   Partly Cloudy
11:50 PM 40 °F - 36 °F 82% 29.94 in 12 mi South 4.6 mph - -   Scattered Clouds
11:50 PM 39.2 °F 35.9 °F 35.6 °F 87% 29.92 in 6.2 mi South 4.6 mph - N/A   Partly Cloudy